GW2299 Weather Reports


time (UTC)temp
F
wind
direction
speed
knots
gust
knots
rain 1hr
in
rain 24hr
in
rain mn
in
humidity
%
barometer
mb
20260507161535 64 252 0.9 2.6 0.00 0.00 0.00 73 1014.5
20260507160028 65 321 0.9 4.3 0.00 0.00 0.00 72 1014.3
20260507154532 66 0 0.9 3.5 0.00 0.00 0.00 71 1014.4
20260507153038 67 13 0.9 4.3 0.00 0.00 0.00 71 1014.5
20260507151526 66 339 3.5 7.8 0.00 0.00 0.00 72 1014.5
20260507150027 68 295 0.9 2.6 0.00 0.00 0.00 70 1014.2
20260507144526 69 264 0.9 4.3 0.00 0.00 0.00 69 1014.1
20260507143027 70 0 0.9 2.6 0.00 0.00 0.00 68 1014.1
20260507141528 70 334 0.9 3.5 0.00 0.00 0.00 65 1014.1
20260507140030 72 285 1.7 3.5 0.00 0.00 0.00 61 1014.2
20260507134531 72 274 0.9 4.3 0.00 0.00 0.00 55 1014.2
20260507133028 72 283 1.7 5.2 0.00 0.00 0.00 56 1014.4
20260507131527 72 287 0.9 4.3 0.00 0.00 0.00 53 1014.4
20260507130036 71 310 0.0 2.6 0.00 0.00 0.00 54 1014.6
20260507124529 72 219 1.7 3.5 0.00 0.00 0.00 52 1014.7
20260507123026 72 288 2.6 7.0 0.00 0.00 0.00 53 1014.7
20260507121526 73 179 1.7 7.8 0.00 0.00 0.00 51 1014.9
20260507120027 72 213 1.7 4.3 0.00 0.00 0.00 51 1014.9
20260507114525 71 286 2.6 8.7 0.00 0.00 0.00 48 1015.0
20260507113026 71 214 1.7 5.2 0.00 0.00 0.00 52 1015.3
20260507111528 71 283 1.7 6.1 0.00 0.00 0.00 54 1015.3
20260507103030 69 51 0.9 3.5 0.00 0.00 0.00 64 1015.2
20260507083028 64 281 0.0 1.7 0.00 0.00 0.00 74 1015.7
20260507081527 62 0 0.0 1.7 0.00 0.00 0.00 79 1015.8
20260507080036 60 274 0.0 1.7 0.00 0.00 0.00 79 1015.5
20260507074528 59 0 0.0 0.9 0.00 0.00 0.00 82 1015.5
20260507073029 58 278 0.9 1.7 0.00 0.00 0.00 82 1015.4
20260507071556 58 0 0.0 0.9 0.00 0.00 0.00 83 1015.5
20260507070030 57 0 0.0 0.9 0.00 0.00 0.00 85 1015.6
20260507064527 57 276 0.0 0.9 0.00 0.00 0.00 84 1015.6
20260507063025 57 4 0.0 0.9 0.00 0.00 0.00 85 1015.7
20260507061529 57 0 0.0 0.0 0.00 0.00 0.00 84 1015.6
20260507060030 57 19 0.0 0.9 0.00 0.00 0.00 85 1015.5
20260507054526 56 0 0.0 0.9 0.00 0.00 0.00 83 1015.4
20260507053032 56 34 0.0 1.7 0.00 0.00 0.00 85 1015.3
20260507051538 56 22 0.0 1.7 0.00 0.00 0.00 85 1015.2
20260507050035 57 96 0.9 1.7 0.00 0.00 0.00 80 1014.9
20260507044529 58 210 0.0 9.6 0.00 0.00 0.00 76 1014.6
20260507043026 58 226 0.9 6.1 0.00 0.00 0.00 76 1014.4
20260507041529 58 0 0.0 7.0 0.00 0.00 0.00 78 1014.2
20260507040028 58 0 0.9 8.7 0.00 0.00 0.00 79 1013.9
20260507034535 57 197 2.6 9.6 0.00 0.00 0.00 80 1014.1
20260507033038 57 0 0.9 8.7 0.00 0.00 0.00 83 1014.1
20260507031527 55 121 0.9 6.1 0.00 0.00 0.00 85 1014.4
20260507030029 56 0 0.0 5.2 0.00 0.00 0.00 84 1014.4
20260507024533 56 0 0.9 9.6 0.00 0.00 0.00 84 1014.4
20260507023034 56 0 0.9 10.4 0.00 0.00 0.00 84 1014.5
20260507021528 56 199 1.7 7.8 0.00 0.00 0.00 84 1014.6
20260507020026 55 153 0.9 9.6 0.00 0.00 0.00 83 1014.5
20260507014529 55 0 0.0 7.8 0.00 0.00 0.00 83 1014.5
20260507013028 55 0 0.9 11.3 0.00 0.00 0.00 82 1014.3
20260507011533 56 200 0.9 8.7 0.00 0.00 0.00 80 1014.0
20260507010030 55 224 0.9 12.2 0.00 0.00 0.00 80 1013.9
20260507004536 55 219 0.9 10.4 0.00 0.00 0.00 79 1014.2
20260507003028 55 177 0.9 7.8 0.00 0.00 0.00 77 1014.3
20260507001530 55 126 0.9 7.0 0.00 0.00 0.00 76 1014.4
20260507000030 55 184 0.0 12.2 0.00 0.00 0.00 75 1014.5
20260506234528 55 0 0.0 6.1 0.00 0.00 0.00 75 1014.7
20260506233026 55 0 0.0 1.7 0.00 0.00 0.00 79 1015.2
20260506231528 55 0 0.0 1.7 0.00 0.00 0.00 77 1015.2
20260506230031 55 0 0.0 0.9 0.00 0.00 0.00 77 1015.3
20260506224530 56 0 0.0 4.3 0.00 0.00 0.00 75 1015.5
20260506223029 56 0 0.0 2.6 0.00 0.00 0.00 74 1015.4
20260506221529 56 0 0.0 3.5 0.00 0.00 0.00 77 1015.5
20260506220034 56 0 0.0 0.0 0.00 0.00 0.00 77 1015.5
20260506214528 56 130 0.0 4.3 0.00 0.00 0.00 77 1015.6
20260506213031 56 248 0.0 3.5 0.00 0.00 0.00 77 1015.7
20260506211532 56 0 0.0 2.6 0.00 0.00 0.00 79 1015.8
20260506210027 57 0 0.0 7.0 0.00 0.00 0.00 78 1016.0
20260506204555 58 0 0.0 1.7 0.00 0.00 0.00 76 1016.3
20260506203029 58 0 0.0 6.1 0.00 0.00 0.00 73 1016.2
20260506201530 58 211 0.9 9.6 0.00 0.00 0.00 71 1016.2
20260506200027 58 0 0.0 5.2 0.00 0.00 0.00 72 1015.9
20260506194527 59 96 0.0 3.5 0.00 0.00 0.00 73 1015.6
20260506193026 59 0 0.0 3.5 0.00 0.00 0.00 71 1015.5
20260506191528 59 0 0.0 1.7 0.00 0.00 0.00 71 1015.4
20260506190028 59 0 0.0 3.5 0.00 0.00 0.00 69 1015.3
20260506184529 59 0 0.0 3.5 0.00 0.00 0.00 65 1015.1
20260506183028 60 0 0.0 9.6 0.00 0.00 0.00 62 1015.1
20260506181526 60 252 0.9 5.2 0.00 0.00 0.00 61 1014.9
20260506180030 60 274 0.0 2.6 0.00 0.00 0.00 59 1014.9
20260506174527 60 0 0.0 3.5 0.00 0.00 0.00 60 1014.8
20260506173028 61 229 0.9 4.3 0.00 0.00 0.00 59 1014.7
20260506171526 61 0 0.0 1.7 0.00 0.00 0.00 61 1014.7
20260506170028 62 217 0.0 2.6 0.00 0.00 0.00 62 1014.5
20260506164528 62 276 0.0 4.3 0.00 0.00 0.00 64 1014.5
20260506163032 63 296 0.0 1.7 0.00 0.00 0.00 65 1014.7